Renton, WA
on Sunday, December 16, 2012

Sunday
Previous Day Next Day
Daily Summary
 ActualAverage (KSEA)Record (KSEA)
Temperature
Mean Temperature °F 40°F  
Max Temperature 48°F 45°F 57°F (1974)
Min Temperature 41°F 35°F 10°F (1964)
Degree Days
Heating Degree Days 20 25  
Month to date heating degree days 385  
Since 1 July heating degree days 1568  
Cooling Degree Days 0 0  
Month to date cooling degree days 0  
Year to date cooling degree days 189  
Moisture
Dew Point 36°F   
Average Humidity 79    
Maximum Humidity 89    
Minimum Humidity 70    
Precipitation
Precipitation 0.79 in 0.17 in 1.32 in (1997)
Month to date precipitation 2.87  
Year to date precipitation 35.01  
Snow
Snow 0.00 in in 1.10 in (1992)
Month to date snowfall  
Since 1 July snowfall  
Snow Depth in   
Wind
Wind Speed 9 mph   
Max Wind Speed 16 mph   
Max Gust Speed 29 mph   
Visibility 9 miles   
Events Rain   

Key: T is trace of precipitation, MM is missing value
Source: NWS Daily Summary
Time(PST)TemperatureDew PointHumidity Pressure Visibility Wind DirectionWind SpeedGust SpeedPrecipitationEvents Conditions
12:53 AM 41.0°F 34.0°F 76% 29.73 in 10.0 miles SSE 8.1 mph - N/A   Overcast
1:25 AM 42.8°F 33.8°F 70% 29.72 in 10.0 miles SSE 8.1 mph - N/A   Overcast
1:53 AM 42.1°F 34.0°F 73% 29.73 in 10.0 miles SSE 11.5 mph - 0.00 in   Mostly Cloudy
2:17 AM 42.8°F 33.8°F 70% 29.72 in 10.0 miles SE 11.5 mph 19.6 mph N/A   Mostly Cloudy
2:53 AM 42.1°F 34.0°F 73% 29.75 in 10.0 miles SSE 12.7 mph - N/A   Overcast
3:28 AM 41.0°F 33.8°F 76% 29.74 in 10.0 miles SSE 9.2 mph - N/A   Overcast
3:53 AM 41.0°F 34.0°F 76% 29.75 in 10.0 miles SSE 9.2 mph - N/A   Overcast
4:30 AM 41.0°F 33.8°F 76% 29.75 in 10.0 miles SSE 11.5 mph - N/A   Mostly Cloudy
4:40 AM 41.0°F 33.8°F 76% 29.75 in 10.0 miles SSE 11.5 mph - N/A   Overcast
4:53 AM 41.0°F 35.1°F 79% 29.76 in 10.0 miles South 10.4 mph - N/A   Overcast
5:03 AM 41.0°F 35.6°F 81% 29.75 in 10.0 miles South 8.1 mph - N/A   Overcast
5:36 AM 42.8°F 33.8°F 70% 29.74 in 10.0 miles SSE 11.5 mph - N/A   Mostly Cloudy
5:53 AM 42.1°F 34.0°F 73% 29.76 in 10.0 miles SSE 10.4 mph - N/A   Mostly Cloudy
6:53 AM 42.1°F 34.0°F 73% 29.77 in 10.0 miles South 8.1 mph - N/A   Overcast
7:32 AM 42.8°F 35.6°F 76% 29.75 in 10.0 miles South 6.9 mph - 0.00 in Rain Light Rain
7:53 AM 41.0°F 35.1°F 79% 29.77 in 10.0 miles South 5.8 mph - 0.01 in Rain Light Rain
8:53 AM 42.1°F 35.1°F 76% 29.77 in 10.0 miles South 6.9 mph - 0.00 in Rain Light Rain
9:53 AM 41.0°F 36.0°F 82% 29.75 in 6.0 miles SSE 4.6 mph - 0.03 in Rain Light Rain
10:53 AM 41.0°F 37.0°F 86% 29.72 in 9.0 miles ESE 3.5 mph - 0.02 in Rain Light Rain
11:53 AM 41.0°F 37.0°F 86% 29.68 in 6.0 miles ESE 4.6 mph - 0.02 in Rain Light Rain
12:53 PM 41.0°F 37.0°F 86% 29.61 in 7.0 miles ESE 4.6 mph - 0.03 in Rain Light Rain
1:00 PM 41.0°F 37.4°F 87% 29.59 in 7.0 miles ESE 3.5 mph - 0.01 in Rain Light Rain
1:53 PM 42.1°F 37.9°F 85% 29.53 in 8.0 miles East 3.5 mph - 0.03 in Rain Light Rain
2:53 PM 42.1°F 37.0°F 82% 29.44 in 9.0 miles ESE 9.2 mph - 0.02 in Rain Light Rain
3:53 PM 42.1°F 39.0°F 89% 29.35 in 6.0 miles ESE 9.2 mph 16.1 mph 0.07 in Rain Rain
4:53 PM 42.1°F 39.0°F 89% 29.25 in 7.0 miles ESE 10.4 mph 21.9 mph 0.19 in Rain Light Rain
5:53 PM 43.0°F 39.9°F 89% 29.14 in 7.0 miles East 15.0 mph 25.3 mph 0.02 in Rain Light Rain
6:53 PM 44.1°F - N/A% 29.07 in 6.0 miles ESE 6.9 mph 18.4 mph 0.06 in Rain Light Rain
7:53 PM 44.1°F - N/A% 29.08 in 6.0 miles Variable 3.5 mph - 0.11 in Rain Light Rain
8:30 PM 44.6°F - N/A% 29.06 in 10.0 miles ESE 6.9 mph - 0.05 in Rain Light Rain
8:43 PM 44.6°F - N/A% 29.06 in 10.0 miles ESE 9.2 mph - 0.05 in Rain Light Rain
8:53 PM 45.0°F - N/A% 29.07 in 10.0 miles ESE 6.9 mph - 0.06 in Rain Light Rain
9:53 PM 48.0°F - N/A% 29.06 in 10.0 miles ESE 9.2 mph 23.0 mph 0.01 in   Overcast
10:53 PM 46.9°F - N/A% 29.04 in 4.0 miles ESE 16.1 mph 28.8 mph 0.04 in Rain Rain
11:53 PM 46.0°F - N/A% 28.99 in 10.0 miles Variable 5.8 mph - 0.07 in Rain Light Rain
Moon Phase
Dec. 16 Dec. 20 Dec. 28 Jan. 04 Jan. 11
Sunrise:07:51 AM (PST) Moon Rise:10:14 AM (PST)12/16
Sunset:04:18 PM (PST) Moon Set:08:53 PM (PST)12/16

Copyright © 2014 The Weather Underground, Inc.